Regional Weather Roundup
Issued by NWS Midland/Odessa, TX

Skip options and go directly to product.
Home | Oldest Version | Previous Version | Current Version | All | Text Only | Save Text | Print | Product List | Glossary On

Skip product version selection by date and time.   
069
ASUS44 KMAF 301810
RWRMAF
MIDLAND AREA WEATHER ROUNDUP
NATIONAL WEATHER SERVICE MIDLAND TX
1200 PM CST FRI JAN 30 2015

...IN SOUTHWEST TEXAS AND SOUTHEAST NEW MEXICO...

CITY           SKY/WX    TMP DP  RH WIND       PRES   REMARKS
ALPINE         CLOUDY    44  32  63 NE9       30.36F WCI  39
ANDREWS        PTSUNNY   42  30  62 E14       30.37F WCI  35
ARTESIA        CLOUDY    41  32  70 E10       30.37F WCI  35
BIG SPRING     CLOUDY    45  29  53 E8        30.43F
CARLSBAD       CLOUDY    42  33  70 E9        30.36F WCI  37
DRYDEN           N/A     52  33  48 E12       30.33F
FORT STOCKTON  CLOUDY    47  33  58 E10       30.33F
GUAD PASS      FOG       32  31  96 E36G48    30.25R VSB 3/4 WCI  16
HOBBS          LGT RAIN  37  32  81 NE12      30.37F WCI  30
MARFA          CLOUDY    45  34  65 NE13      30.30S WCI  38
MIDLAND AIRPK  CLOUDY    45  30  57 E10       30.38F WCI  39
MIDLAND INTL   CLOUDY    45  30  55 E16       30.36F WCI  38
ODESSA         CLOUDY    45  30  55 E13       30.37F WCI  39
PECOS          CLOUDY    45  33  63 E7        30.36F
PRESIDIO       CLOUDY    55  36  48 NE13G21   30.24F
SEMINOLE       CLOUDY    42  29  60 E9        30.38F WCI  36
SNYDER         CLOUDY   N/A N/A N/A E9        30.43F
WINK           CLOUDY    45  27  49 E8        30.35F
$$
...OTHER STATIONS IN TEXAS...

CITY           SKY/WX    TMP DP  RH WIND       PRES   REMARKS
ABILENE        CLOUDY    45  29  53 E7        30.44F
AMARILLO       CLOUDY    38  27  64 S13       30.40F WCI  30
AUSTIN         PTSUNNY   51  36  56 NE13      30.43F
BROWNSVILLE    CLOUDY    71  63  75 N14       30.29F
CORPUS CHRISTI PTSUNNY   65  47  52 NE16G26   30.36F
DALLAS FTW     PTSUNNY   50  31  48 E8        30.46F
DEL RIO        CLOUDY    58  35  42 VRB3      30.36F
EL PASO        CLOUDY    45  36  70 E14       30.22F WCI  38
HOUSTON INT    PTSUNNY   58  39  49 NE10      30.41F
LUBBOCK        CLOUDY    41  27  57 SE14      30.40F WCI  33
SAN ANGELO     CLOUDY    49  33  54 E13       30.41F
SAN ANTONIO    CLOUDY    58  37  45 E13       30.39F
WACO           PTSUNNY   51  34  52 NE9       30.46F
WICHITA FALLS  NOT AVBL
$$
...OTHER LOCATIONS IN NEW MEXICO...

CITY           SKY/WX    TMP DP  RH WIND       PRES   REMARKS
ALAMAGORDO     LGT RAIN  41  41 100 NE5       30.25F WCI  38
ALBUQUERQUE    LGT SNOW  35  30  82 NE10      30.26F WCI  27
CANNON AFB     LGTSLEET  38  27  64 SE10      30.36F WCI  32
CLOVIS         CLOUDY    37  27  65 SE12      30.37F WCI  30
HOLLOMAN AFB   DRIZZLE   44  41  91 SW3       30.23F
ROSWELL        CLOUDY    41  32  70 S12       30.36F WCI  34
RUIDOSO        CLOUDY    28  28 100 SE12      30.28F WCI  18
SANTA FE       SNOW      31  28  89 S8        30.28S VSB 1/2 WCI  23
TRUTH OR CONSE LGT RAIN  39  37  92 N8        30.21F WCI  33
TUCUMCARI      LGT SNOW  35  33  92 SW6       30.36F FOG     WCI  30
$$

USA.gov is the U.S. government's official web portal to all federal, state and local government web resources and services.